This is the latest recevied weather packets stored in our database for station/object DB0ADS-6. If no packets are shown the sender has not sent any weather packets the latest 10 day(s).
| Time | Temp. | Humidity | Pressure | Rain* | Wind** | Luminosity | Snow |
|---|---|---|---|---|---|---|---|
| 1777955142 | 13.33° C | 82% | 1007.1 hPa | 0 mm | - | - | - |
| 1777954840 | 13.33° C | 81% | 1007.2 hPa | 0 mm | - | - | - |
| 1777954538 | 12.78° C | 82% | 1007.2 hPa | 0 mm | - | - | - |
| 1777954237 | 12.78° C | 82% | 1007.2 hPa | 0 mm | - | - | - |
| 1777953935 | 13.33° C | 82% | 1007.2 hPa | 0 mm | - | - | - |
| 1777953633 | 12.78° C | 82% | 1007.3 hPa | 0 mm | - | - | - |
| 1777953332 | 12.78° C | 82% | 1007.3 hPa | 0 mm | - | - | - |
| 1777953030 | 13.33° C | 80% | 1007.3 hPa | 0 mm | - | - | - |
| 1777952728 | 13.33° C | 80% | 1007.4 hPa | 0 mm | - | - | - |
| 1777952426 | 13.89° C | 79% | 1007.4 hPa | 0 mm | - | - | - |
| 1777952125 | 13.33° C | 78% | 1007.5 hPa | 0 mm | - | - | - |
| 1777951823 | 13.89° C | 78% | 1007.5 hPa | 0 mm | - | - | - |
| 1777951521 | 13.89° C | 77% | 1007.7 hPa | 0 mm | - | - | - |
| 1777951219 | 13.89° C | 77% | 1007.7 hPa | 0 mm | - | - | - |
| 1777950918 | 13.89° C | 76% | 1007.8 hPa | 0 mm | - | - | - |
| 1777950616 | 13.89° C | 76% | 1007.9 hPa | 0 mm | - | - | - |
| 1777950375 | 13.89° C | 78% | 1007.9 hPa | 0 mm | - | - | - |
| 1777950072 | 13.89° C | 78% | 1008 hPa | 0 mm | - | - | - |
| 1777949771 | 14.44° C | 74% | 1008 hPa | 0 mm | - | - | - |
| 1777949469 | 14.44° C | 75% | 1008.1 hPa | 0 mm | - | - | - |
| 1777949167 | 13.89° C | 76% | 1008.1 hPa | 0 mm | - | - | - |
| 1777948866 | 13.89° C | 76% | 1008.1 hPa | 0 mm | - | - | - |
| 1777948564 | 13.89° C | 78% | 1008.2 hPa | 0 mm | - | - | - |
| 1777948262 | 13.89° C | 78% | 1008.4 hPa | 0 mm | - | - | - |
| 1777947961 | 13.89° C | 77% | 1008.4 hPa | 0 mm | - | - | - |
* Rain latest hour (hover to see other rain measurements)
** Current wind speed in m/s (hover to see current wind gust speed)